Location: Sungai Laei
(2.6000°N, 113.7167°E)
Time: 10:57:45
(UTC+00:00)

Cosmos 1727 Rocket - Pass Details

Date: 22 May 2022
Orbit: 960 x 997 km, 82.9° (Epoch: 06 July)

Event Time Altitude Azimuth Distance (km) Brightness Sun altitude
Rises 21:49:12 0° 181° (S) 3,650 6.8 -6.7°
Reaches altitude 10° 21:51:41 10° 180° (S) 2,706 6.1 -6.1°
Maximum altitude 21:57:53 82° 93° (E) 984 4.2 -4.7°
Drops below altitude 10° 22:04:08 10° 6° (N) 2,722 6.7 -3.2°
Sets 22:06:39 0° 5° (N) 3,673 7.4 -2.6°
